Probability
0 0 0 0 0 0 0 0 0 0 0 0 2 3 4 7 10 11 13 15 17 18 23 30 31 30 34 40 41 40 39 35 31 25 22 21 18 15 15 15 16 17 15 13
0 0 0 0 0 0 0 0 0 0 0 1 3 4 5 8 11 13 15 17 20 21 26 33 34 32 34 37 39 39 38 36 31 27 24 22 19 17 15 15 17 17 16 15
0 0 0 0 0 0 0 0 0 0 1 2 4 5 7 10 13 14 14 17 21 25 31 35 35 34 34 34 36 38 38 37 32 29 27 24 21 18 15 15 16 16 15 15
0 0 0 0 0 0 0 0 0 0 2 3 3 4 8 12 13 12 11 15 21 27 32 33 34 34 33 32 33 36 38 37 33 29 28 25 22 19 17 16 15 14 12 12
0 0 0 0 0 0 0 0 0 0 1 1 1 2 6 11 12 11 11 15 22 27 29 30 32 33 32 30 32 35 37 35 31 28 27 26 23 21 19 18 16 13 9 7
0 0 0 0 0 0 0 0 1 0 0 0 0 2 5 8 11 14 14 15 21 25 25 27 29 31 31 31 33 36 36 34 30 26 26 27 26 22 19 18 16 11 7 5
0 0 0 0 0 0 0 0 0 0 0 0 0 2 6 9 11 15 16 15 18 22 23 25 27 28 30 32 33 36 37 35 30 26 24 26 26 22 19 18 14 9 5 5
0 0 0 0 0 0 0 0 0 0 0 0 0 3 8 11 13 17 18 17 18 21 23 24 25 26 28 30 31 34 35 34 29 25 23 23 23 20 18 18 14 9 6 6
0 0 0 0 0 0 0 0 0 1 1 0 1 5 10 13 15 18 19 18 18 20 22 24 24 23 25 28 30 31 32 31 26 23 21 21 21 19 18 18 15 11 8 7
0 0 0 0 0 0 0 0 1 2 2 1 1 4 9 13 15 17 19 17 16 17 18 19 19 20 22 27 29 28 26 25 23 20 19 20 19 17 16 16 14 11 10 10
0 0 0 0 0 0 0 0 1 3 2 1 1 2 5 11 16 16 16 15 14 13 13 13 14 15 18 22 23 19 18 18 18 18 18 18 16 14 13 13 12 11 11 12
0 0 0 0 0 0 0 1 2 2 1 0 0 2 6 12 17 17 14 13 12 11 11 11 11 12 13 13 13 12 11 12 13 14 14 16 15 13 13 12 11 11 11 12
1 1 1 0 0 0 0 1 2 1 0 0 1 3 7 13 18 18 15 13 12 11 11 10 10 11 11 9 9 9 9 9 10 9 12 15 16 14 13 12 10 10 10 10
2 2 2 0 0 0 0 1 1 0 0 0 1 4 7 12 17 18 16 14 13 12 12 12 11 14 15 13 10 9 8 8 7 8 10 14 16 16 14 12 10 9 8 7
3 3 2 1 0 0 0 0 0 0 0 0 2 5 8 10 14 16 16 15 14 13 12 13 14 17 19 18 13 9 7 7 7 7 9 12 16 17 17 15 13 10 6 5
5 5 3 1 0 0 0 0 0 0 1 1 2 5 7 9 10 13 14 15 16 15 13 13 17 20 21 20 15 10 7 7 8 8 8 10 14 18 18 18 16 11 6 4
7 8 5 2 0 0 0 0 0 1 3 4 4 5 7 8 9 11 12 14 17 17 15 16 20 23 23 21 17 11 7 7 9 10 10 11 13 17 19 19 16 12 9 7
7 8 6 2 1 1 1 1 1 3 5 7 6 7 9 11 11 12 12 15 17 17 18 20 23 23 22 20 15 11 7 7 8 10 11 12 13 16 19 20 17 14 12 12
4 6 5 2 2 2 2 2 2 3 5 7 9 9 10 12 14 14 15 17 18 18 19 21 20 18 17 17 14 10 8 7 7 8 10 11 12 15 19 22 20 17 15 15
2 3 3 2 3 3 3 3 2 3 5 8 10 11 10 11 14 17 18 19 19 19 19 18 16 14 15 16 15 12 10 8 7 8 9 11 14 16 18 22 22 19 15 13
1 1 2 2 2 3 3 3 3 5 9 11 12 13 12 13 17 20 20 20 21 20 17 15 13 13 14 15 15 14 11 8 7 8 10 13 16 16 17 19 21 19 14 11
2 1 2 3 4 4 4 3 5 8 11 12 13 13 15 18 22 23 22 22 22 19 15 13 13 14 14 14 14 12 9 7 7 8 9 11 13 13 13 15 17 16 13 11
3 3 4 6 6 6 5 5 7 9 11 10 10 12 16 20 24 24 23 23 22 17 14 14 14 14 14 12 11 9 7 5 6 6 6 7 8 9 9 10 10 9 9 8
2 2 4 6 6 6 5 5 6 8 9 9 9 11 15 19 22 22 20 21 20 18 15 15 14 14 12 11 9 8 6 6 5 4 4 6 6 7 8 7 5 4 4 4
1 2 3 4 5 5 5 5 6 7 9 9 10 11 14 17 19 19 18 17 18 18 16 15 14 13 11 10 9 7 6 6 5 4 4 4 4 4 5 6 4 2 1 1
1 2 4 4 4 4 4 6 7 7 7 9 11 11 14 16 16 16 16 16 17 18 17 15 14 13 12 11 9 7 7 6 5 4 4 4 3 3 4 4 3 1 1 0
Wind_Speed
15 15 14 15 16 17 16 14 14 11 7 8 8 7 9 9 8 7 8 9 9 9 10 11 10 10 10 8 8 7 6 5 4 3 2 2 2 1 1 2 2 2 1 1
15 18 17 16 16 16 17 17 16 11 7 7 8 8 7 6 7 7 8 8 9 9 10 10 11 10 10 9 8 8 6 6 4 3 2 2 2 1 2 1 2 2 1 1
17 12 14 16 16 16 17 16 14 11 9 10 8 8 8 7 6 6 8 8 8 9 10 10 11 10 11 10 9 8 7 6 5 4 2 2 2 1 1 1 2 1 1 1
15 14 14 15 16 15 14 13 13 12 10 9 10 9 7 6 6 6 7 8 8 9 10 10 10 10 9 10 10 8 7 6 5 4 3 3 2 2 1 1 1 1 1 2
15 14 15 17 16 14 14 12 12 13 11 11 11 9 5 6 7 8 7 6 8 9 10 10 10 10 9 9 9 8 7 6 5 4 4 3 2 2 1 1 2 2 2 2
17 15 15 15 13 11 12 11 11 11 10 12 12 10 6 5 7 8 8 7 8 9 9 10 10 9 8 9 9 9 8 6 5 5 4 3 3 2 2 2 2 2 2 2
16 16 15 12 12 12 11 9 7 8 8 10 10 8 4 3 3 7 9 8 8 8 9 9 10 10 9 9 9 9 9 7 6 5 4 3 3 3 3 3 3 2 2 2
12 12 12 11 12 10 10 11 9 8 8 8 8 7 3 4 4 7 9 7 8 8 8 8 9 9 9 9 8 8 8 7 7 5 4 4 3 3 2 2 2 2 1 1
10 10 9 9 11 12 12 12 11 10 13 10 7 4 4 5 6 7 8 8 7 7 7 7 6 7 8 8 8 7 7 6 6 6 5 4 4 3 2 2 2 1 1 2
10 11 10 9 10 12 13 11 7 8 9 10 8 4 4 7 7 7 7 7 7 7 6 5 5 6 6 6 7 6 6 6 5 5 4 4 3 2 2 2 2 2 2 2
10 10 10 10 11 12 12 12 9 7 8 7 6 2 2 5 6 7 7 6 7 7 6 5 5 5 5 6 6 6 5 5 5 5 4 3 3 3 2 2 2 2 2 2
7 7 9 10 10 9 10 11 10 7 7 6 6 1 3 5 5 6 7 6 7 7 7 6 6 5 5 4 5 4 4 4 3 3 3 3 3 2 2 2 2 2 2 3
4 5 7 8 8 7 9 9 9 6 5 6 7 2 2 5 5 6 7 6 6 7 7 6 5 5 4 4 3 3 3 2 2 3 3 3 3 2 2 2 2 2 2 2
3 5 9 10 8 6 9 10 9 7 6 7 6 3 2 5 5 5 6 7 6 5 5 5 4 4 4 3 3 2 2 2 1 2 3 3 3 2 2 2 2 2 2 2
3 7 9 11 13 11 9 9 8 8 7 6 4 2 2 3 4 4 5 6 6 5 5 4 4 4 4 3 2 2 1 2 2 2 2 2 2 2 2 2 1 1 1 1
3 6 9 11 12 12 10 10 9 8 8 6 5 1 1 2 3 4 4 5 5 5 5 4 4 4 3 2 2 1 1 1 1 1 2 2 2 2 2 2 2 1 1 1
6 6 8 10 12 10 9 7 7 6 4 3 4 1 2 3 3 4 4 4 4 3 4 4 4 3 3 2 1 1 0 1 2 2 1 1 2 2 2 2 1 2 1 1
8 7 6 9 11 12 4 2 3 2 2 3 1 3 2 4 4 3 4 4 4 4 3 3 3 3 3 2 1 1 1 1 1 1 2 1 1 1 2 2 2 1 1 1
7 7 7 7 9 7 4 3 4 3 1 4 4 2 3 3 4 4 5 4 3 3 3 3 3 3 2 1 1 1 1 1 1 1 1 1 1 1 1 1 2 2 2 2
6 6 7 8 8 7 3 6 5 2 1 4 3 2 2 2 2 2 3 2 3 3 3 3 3 3 2 1 1 1 1 1 1 1 1 0 0 1 1 2 2 2 2 2
6 7 8 8 7 1 6 7 5 3 2 5 4 3 2 0 1 2 2 2 4 4 4 4 3 3 2 1 1 1 0 1 1 1 1 0 0 1 2 2 2 2 2 3
3 3 4 4 4 1 8 6 5 4 4 4 4 4 3 3 4 4 4 4 5 4 4 3 3 2 2 1 1 1 0 1 2 1 1 1 1 1 1 1 1 2 2 3
4 5 4 4 3 4 6 5 5 4 4 4 3 3 3 2 4 4 4 5 4 3 3 2 2 2 2 1 1 1 0 1 1 2 2 1 1 1 1 1 2 2 2 3
3 4 3 3 4 5 7 8 8 7 6 6 5 4 4 3 3 4 4 3 3 2 2 2 2 2 1 1 0 0 0 1 1 1 2 1 1 1 1 1 1 1 1 2
6 4 2 2 2 4 7 7 7 7 6 6 5 5 5 3 3 3 3 2 1 1 2 1 2 1 1 0 1 1 0 0 1 1 2 2 2 1 1 1 1 1 1 1
5 5 3 3 4 3 3 5 6 6 6 5 5 5 5 3 2 2 2 1 1 1 1 1 1 1 1 0 1 1 1 0 1 2 3 3 2 2 2 2 1 1 1 2
Wind_Direction
228 229 234 238 237 249 262 265 266 258 232 232 240 242 235 207 205 189 185 182 181 175 168 158 152 150 148 146 149 149 149 146 148 144 165 162 159 155 144 150 137 149 151 135
230 231 238 243 249 251 257 259 260 256 244 247 247 243 250 221 205 185 189 186 180 172 158 152 153 157 154 153 152 152 159 156 156 150 161 163 157 191 163 136 139 154 142 146
238 239 239 244 245 248 253 258 263 264 260 252 248 248 245 233 212 186 189 185 181 174 159 155 160 164 161 158 157 161 162 155 159 152 155 156 156 175 142 156 149 150 159 160
247 245 245 244 245 246 254 256 265 265 261 260 248 252 232 200 195 181 181 179 173 166 158 157 159 163 163 159 158 151 150 152 157 157 165 178 176 175 189 167 145 156 191 192
247 241 242 245 245 244 255 261 264 271 261 266 263 258 235 196 198 183 177 175 166 160 158 159 159 158 159 158 155 148 149 152 157 164 173 185 186 177 161 156 163 178 203 214
253 249 246 247 251 252 262 263 261 260 259 255 254 258 243 217 197 169 161 165 156 153 149 154 155 156 156 153 151 149 152 157 161 173 180 185 185 184 190 183 183 192 197 210
251 248 239 239 246 244 248 254 254 251 247 251 252 246 229 173 151 153 150 154 148 149 153 154 157 161 158 156 155 155 155 163 171 179 185 189 191 199 200 197 194 201 203 206
252 247 232 229 240 248 242 243 248 260 260 260 250 234 175 121 108 114 125 137 142 145 150 153 156 156 159 159 157 158 159 168 174 180 186 188 192 207 206 207 211 209 216 203
257 258 234 231 232 241 246 241 246 260 273 270 244 178 145 115 111 114 123 124 125 136 136 140 146 152 151 155 157 160 162 170 179 182 180 184 190 206 200 201 220 205 203 201
244 261 246 239 227 231 242 251 252 253 267 273 266 234 179 157 145 137 128 129 124 114 114 124 133 136 136 141 146 152 160 170 179 181 183 180 182 191 188 198 201 210 207 191
251 257 253 239 237 235 226 235 246 253 260 267 280 282 100 146 144 140 135 131 130 128 120 113 112 115 120 129 143 151 160 170 177 179 174 171 174 184 190 205 215 216 203 197
263 267 265 252 254 251 245 239 236 243 260 268 274 254 103 114 123 131 132 132 125 117 115 116 118 121 127 132 130 135 151 168 172 165 162 161 163 173 194 202 215 224 210 211
290 280 264 252 238 241 254 251 249 246 257 262 266 232 112 104 102 115 122 118 115 119 115 111 112 123 128 120 121 130 133 145 158 154 159 150 158 176 202 214 219 224 224 226
271 263 261 259 265 260 251 252 249 238 245 256 260 227 145 118 126 122 119 121 120 120 115 112 112 116 107 109 124 130 143 135 131 147 152 154 170 186 200 212 226 221 219 207
262 256 262 268 273 270 261 259 261 258 258 264 266 208 154 124 129 122 126 131 132 133 128 125 121 112 110 106 107 110 113 119 124 152 161 164 171 187 195 206 210 215 211 204
257 271 274 270 265 266 264 260 253 251 253 256 263 290 80 110 135 139 132 139 148 157 145 129 122 122 120 105 94 87 92 117 143 169 168 167 175 180 195 197 185 191 198 187
270 268 276 271 269 263 254 263 263 259 260 240 243 238 136 145 152 147 137 137 139 141 129 125 122 120 114 105 90 107 124 171 169 160 146 172 179 178 194 190 173 193 195 183
258 272 268 265 263 253 256 289 306 296 334 314 302 130 149 126 124 117 130 138 144 136 126 120 115 113 110 115 119 179 180 204 192 164 163 182 190 195 186 172 185 194 186 184
229 243 258 258 254 248 258 306 293 276 308 5 11 35 73 89 126 125 109 111 116 110 109 111 119 119 111 114 134 205 206 216 209 200 207 199 195 185 179 186 203 202 195 201
221 226 243 257 261 249 325 342 330 265 181 17 18 38 91 101 140 126 96 103 116 107 107 114 118 117 119 121 182 230 239 244 270 285 285 243 214 199 194 206 217 214 206 204
218 226 238 252 257 259 350 340 320 273 8 6 15 29 56 3 65 116 106 107 104 110 118 119 125 131 141 167 213 233 273 308 309 318 311 297 221 203 190 197 202 206 214 207
302 278 265 260 250 313 0 16 32 31 19 11 23 30 31 42 68 102 111 105 109 110 111 113 118 129 150 169 189 229 309 317 318 319 312 318 311 279 211 171 193 214 226 214
14 11 353 26 76 63 36 52 53 47 33 21 27 29 14 77 96 95 90 94 94 102 107 118 140 139 134 146 181 247 284 298 316 325 320 309 313 301 253 221 205 217 228 231
11 11 30 53 67 57 49 47 39 37 35 28 28 26 32 65 85 88 94 92 93 97 118 121 122 119 121 143 187 309 311 314 318 312 307 291 276 256 241 262 239 221 254 259
345 336 27 75 43 46 39 27 24 29 30 34 28 30 25 55 75 83 93 85 89 100 93 104 113 114 118 234 240 245 275 335 316 298 290 284 266 258 219 228 272 267 240 250
345 357 3 21 18 12 6 3 6 17 22 26 21 23 20 49 67 81 105 91 87 89 97 85 81 85 70 330 308 325 3 231 269 278 283 284 273 246 233 219 230 328 250 253